Location: Bois de la Silve
(44.4667°N, 6.7833°E)
Time: 08:06:21
(UTC+00:00)

Cosmos 2233 Rocket - Pass Details

Date: 14 July 2020
Orbit: 954 x 990 km, 82.9° (Epoch: 14 August)

Event Time Altitude Azimuth Distance (km) Brightness Sun altitude
Exits shadow 02:39:39 16° 218° (SW) 2,303 5.3 -12.1°
Maximum altitude 02:44:21 44° 285° (WNW) 1,317 4.5 -11.5°
Drops below altitude 10° 02:50:20 10° 357° (N) 2,739 7.0 -10.8°
Sets 02:53:00 0° 3° (N) 3,696 7.8 -10.4°
